Weather History for KJAS - February, 2013

Change the Weather History Date:

Tuesday, February 26, 2013

  Actual Average (KLFK) Record (KLFK)
Temperature  
Mean Temperature 53 °F 55 °F  
Max Temperature 63 °F 66 °F 86 °F (1917)
Min Temperature 42 °F 44 °F 20 °F (1960)
Degree Days  
Heating Degree Days 12 10  
Month to date heating degree days 334  
Since 1 July heating degree days 1614  
Cooling Degree Days 0 1  
Month to date cooling degree days 2  
Year to date cooling degree days 10  
Growing Degree Days 3 (Base 50)    
Moisture  
Dew Point 36 °F    
Average Humidity 57    
Maximum Humidity 94    
Minimum Humidity 33    
Precipitation  
Precipitation 0.00 in 0.13 in 2.00 in (1913)
Month to date precipitation 3.62  
Year to date precipitation 7.80  
Snow  
Snow 0.00 in - - ()
Month to date snowfall  
Since 1 July snowfall  
Snow Depth -    
Sea Level Pressure  
Sea Level Pressure 29.85 in    
Wind  
Wind Speed 13 mph (WNW)    
Max Wind Speed 22 mph    
Max Gust Speed 31 mph    
Visibility 10 miles    
Events      
T = Trace of Precipitation, MM = Missing Value Source: NWS Daily Summary

Daily Weather History Graph

Daily Weather History Graph

Search for Another Location

Airport or City:

Trip Planner

Search our weather history database for the weather conditions in past years. The results will help you decide how hot, cold, wet, or windy it might be!

Date:

Astronomy

Feb. 26, 2013 Rise Set
Actual Time 6:45 AM CST 6:12 PM CST
Civil Twilight 6:21 AM CST 6:36 PM CST
Nautical Twilight 5:53 AM CST 7:05 PM CST
Astronomical Twilight 5:25 AM CST 7:33 PM CST
Moon 7:21 PM CST (2/26) 6:55 AM CST (2/26)
Length of Visible Light 12h 15m
Length of Day
11h 27m
Full, 99% of the Moon is Illuminated
Feb 26
Full
Mar 4
Last Quarter
Mar 11
New
Mar 19
First Quarter
Mar 27
Full

Hourly Weather History & Observations

Time (CST) Temp. Windchill Dew Point Humidity Pressure Visibility Wind Dir Wind Speed Gust Speed Precip Events Conditions
12:15 AM 48.9 °F - 32.0 °F 52% 29.70 in 10.0 mi West 19.6 mph 26.5 mph N/A   Overcast
12:35 AM 48.7 °F - 32.2 °F 53% 29.70 in 10.0 mi West 19.6 mph 31.1 mph N/A   Overcast
12:55 AM 48.6 °F - 32.5 °F 54% 29.71 in 10.0 mi West 17.3 mph 29.9 mph N/A   Overcast
1:15 AM 48.4 °F - 32.7 °F 55% 29.72 in 10.0 mi West 19.6 mph 28.8 mph N/A   Overcast
1:35 AM 48.2 °F - 32.0 °F 54% 29.72 in 10.0 mi West 17.3 mph 31.1 mph N/A   Overcast
1:55 AM 47.7 °F - 32.0 °F 55% 29.72 in 10.0 mi West 16.1 mph 28.8 mph N/A   Overcast
2:15 AM 47.5 °F - 32.0 °F 55% 29.72 in 10.0 mi WSW 17.3 mph 28.8 mph N/A   Overcast
2:35 AM 47.5 °F - 32.0 °F 55% 29.72 in 10.0 mi West 15.0 mph 24.2 mph N/A   Overcast
2:55 AM 47.7 °F - 32.0 °F 55% 29.72 in 10.0 mi West 15.0 mph 31.1 mph N/A   Overcast
4:55 AM - - - N/A% - - North - - N/A   Unknown
5:15 AM - - - N/A% - - North - - N/A   Unknown
5:35 AM - - - N/A% - - North - - N/A   Unknown
5:55 AM 45.7 °F 40.2 °F 33.4 °F 62% 29.76 in - West 11.5 mph - N/A   Unknown
6:15 AM 45.7 °F 40.2 °F 33.8 °F 63% 29.77 in 10.0 mi West 11.5 mph 20.7 mph N/A   Overcast
6:35 AM 45.9 °F 40.8 °F 33.8 °F 63% 29.78 in 10.0 mi West 10.4 mph 20.7 mph N/A   Overcast
6:55 AM 45.9 °F 40.4 °F 33.8 °F 63% 29.79 in 10.0 mi West 11.5 mph 19.6 mph N/A   Overcast
7:15 AM 46.2 °F 40.1 °F 33.8 °F 62% 29.80 in 10.0 mi West 13.8 mph 20.7 mph N/A   Overcast
7:35 AM 46.4 °F 40.7 °F 34.0 °F 62% 29.81 in 10.0 mi West 12.7 mph 19.6 mph N/A   Overcast
7:55 AM 46.6 °F - 34.0 °F 62% 29.82 in 10.0 mi West 11.5 mph 20.7 mph N/A   Mostly Cloudy
8:15 AM 46.9 °F - 34.0 °F 61% 29.83 in 10.0 mi WNW 11.5 mph 20.7 mph N/A   Mostly Cloudy
8:35 AM 48.0 °F - 34.2 °F 59% 29.83 in 10.0 mi WNW 12.7 mph 23.0 mph N/A   Scattered Clouds
8:55 AM 48.6 °F - 34.0 °F 57% 29.84 in 10.0 mi WNW 17.3 mph 23.0 mph N/A   Scattered Clouds
9:15 AM 49.3 °F - 34.0 °F 56% 29.85 in 10.0 mi WNW 16.1 mph 29.9 mph N/A   Scattered Clouds
9:35 AM 50.5 °F - 33.8 °F 53% 29.86 in 10.0 mi WNW 19.6 mph 24.2 mph N/A   Clear
9:55 AM 51.4 °F - 34.2 °F 52% 29.86 in 10.0 mi West 16.1 mph 21.9 mph N/A   Clear
10:15 AM 52.3 °F - 34.5 °F 51% 29.86 in 10.0 mi WNW 15.0 mph 24.2 mph N/A   Clear
10:35 AM 53.1 °F - 34.2 °F 49% 29.87 in 10.0 mi WNW 21.9 mph 27.6 mph N/A   Clear
10:55 AM 54.0 °F - 34.0 °F 47% 29.87 in 10.0 mi WNW 10.4 mph 17.3 mph N/A   Clear
11:15 AM 55.0 °F - 34.3 °F 46% 29.87 in 10.0 mi WNW 11.5 mph 18.4 mph N/A   Clear
11:35 AM 56.1 °F - 34.7 °F 45% 29.87 in 10.0 mi WNW 12.7 mph 19.6 mph N/A   Clear
11:55 AM 56.8 °F - 34.5 °F 43% 29.87 in 10.0 mi West 12.7 mph 23.0 mph N/A   Clear
12:15 PM 57.6 °F - 34.2 °F 41% 29.86 in 10.0 mi WNW 15.0 mph - N/A   Clear
12:35 PM 58.3 °F - 34.3 °F 41% 29.86 in 10.0 mi West 12.7 mph 18.4 mph N/A   Clear
12:55 PM 59.2 °F - 34.7 °F 40% 29.86 in 10.0 mi West 10.4 mph 13.8 mph N/A   Clear
1:15 PM 59.7 °F - 34.9 °F 39% 29.85 in 10.0 mi West 12.7 mph 18.4 mph N/A   Clear
1:35 PM 60.4 °F - 33.8 °F 37% 29.85 in 10.0 mi West 13.8 mph 20.7 mph N/A   Clear
1:55 PM 61.0 °F - 34.0 °F 36% 29.84 in 10.0 mi WNW 13.8 mph 18.4 mph N/A   Clear
2:15 PM 62.1 °F - 34.0 °F 35% 29.84 in 10.0 mi WNW 12.7 mph 19.6 mph N/A   Clear
2:35 PM 62.4 °F - 34.2 °F 35% 29.84 in 10.0 mi WNW 15.0 mph - N/A   Clear
2:55 PM 62.4 °F - 33.8 °F 34% 29.83 in 10.0 mi WNW 12.7 mph 19.6 mph N/A   Clear
3:15 PM 63.0 °F - 34.7 °F 35% 29.83 in 10.0 mi WNW 9.2 mph 16.1 mph N/A   Clear
3:35 PM 63.0 °F - 34.5 °F 35% 29.84 in 10.0 mi West 9.2 mph 16.1 mph N/A   Clear
3:55 PM 63.1 °F - 34.3 °F 34% 29.84 in 10.0 mi WNW 6.9 mph - N/A   Clear
4:15 PM 63.0 °F - 34.2 °F 34% 29.84 in 10.0 mi NW 12.7 mph 18.4 mph N/A   Clear
4:35 PM 63.0 °F - 33.6 °F 33% 29.85 in 10.0 mi NW 10.4 mph - N/A   Clear
4:55 PM 62.6 °F - 33.8 °F 34% 29.85 in 10.0 mi NW 9.2 mph - N/A   Clear
5:15 PM 62.1 °F - 34.3 °F 35% 29.86 in 10.0 mi West 6.9 mph - N/A   Clear
5:35 PM 61.5 °F - 35.2 °F 37% 29.87 in 10.0 mi NW 5.8 mph - N/A   Clear
5:55 PM 60.3 °F - 35.6 °F 40% 29.87 in 10.0 mi NW 5.8 mph - N/A   Clear
6:15 PM 58.6 °F - 35.8 °F 42% 29.88 in 10.0 mi Calm Calm - N/A   Clear
6:35 PM 55.8 °F - 38.5 °F 52% 29.89 in 10.0 mi Calm Calm - N/A   Clear
6:55 PM 52.2 °F - 41.5 °F 67% 29.89 in 10.0 mi Calm Calm - N/A   Clear
7:15 PM 50.4 °F - 42.1 °F 73% 29.90 in 10.0 mi Calm Calm - N/A   Clear
7:35 PM 49.8 °F - 42.4 °F 76% 29.91 in 10.0 mi Calm Calm - N/A   Clear
7:55 PM 48.9 °F - 42.4 °F 78% 29.92 in 10.0 mi Calm Calm - N/A   Clear
8:15 PM 47.5 °F - 42.8 °F 84% 29.92 in 10.0 mi Calm Calm - N/A   Clear
8:35 PM 47.1 °F - 42.3 °F 83% 29.93 in 10.0 mi Calm Calm - N/A   Clear
8:55 PM 46.8 °F - 42.4 °F 85% 29.93 in 10.0 mi Calm Calm - N/A   Clear
9:15 PM 46.4 °F - 42.4 °F 86% 29.94 in 10.0 mi Calm Calm - N/A   Clear
9:35 PM 45.9 °F - 42.6 °F 88% 29.94 in 10.0 mi Calm Calm - N/A   Clear
9:55 PM 45.1 °F - 42.1 °F 89% 29.95 in 10.0 mi Calm Calm - N/A   Clear
10:15 PM 44.6 °F - 41.7 °F 90% 29.96 in 10.0 mi Calm Calm - N/A   Clear
10:55 PM 43.9 °F - 41.5 °F 91% 29.96 in 10.0 mi Calm Calm - N/A   Clear
11:15 PM 43.3 °F - 41.4 °F 93% 29.97 in 10.0 mi Calm Calm - N/A   Clear
11:35 PM 43.0 °F - 41.2 °F 93% 29.96 in 10.0 mi Calm Calm - N/A   Clear
11:55 PM 42.8 °F - 41.2 °F 94% 29.96 in 10.0 mi Calm Calm - N/A   Clear